Regional Weather Roundup
Issued by NWS

Home | Current Version | Previous Version | Text Only | Print | Product List | Glossary Off
Versions: 1 2 3 4 5 6 7 8 9 10 11 12 13 14 15 16 17 18 19 20 21 22 23 24 25 26 27 28

000
ASUS45 KSLC 170610
RWRUT

UTAH REGIONAL WEATHER ROUNDUP
NATIONAL WEATHER SERVICE SALT LAKE CITY UT
1100 PM MST MON JAN 16 2017

UTZ001>011-023>025-170700-

NORTHERN UTAH

CITY           SKY/WX    TMP DP  RH WIND       PRES   REMARKS
BRIGHAM CITY     N/A     11   6  81 CALM      30.32R
HILL AFB       CLEAR     16   8  72 E12       30.27R WCI   2
LOGAN          CLEAR      2  -2  83 CALM      30.33R FOG
OGDEN          PTCLDY    14   8  77 S6        30.28R WCI   5
SALT LAKE CITY PTCLDY    22  17  81 CALM      30.30S
TOOELE VALLEY  PTCLDY    23  21  93 CALM      30.30S
WENDOVER       CLOUDY    25  19  80 E3        30.30S
HEBER CITY     PTCLDY     0  -6  78 CALM      30.24S
WEST JORDAN    CLOUDY    22  21  95 CALM      30.29S

$$

UTZ011>015-024>027-170700-

CENTRAL/NORTHEAST UTAH

CITY           SKY/WX    TMP DP  RH WIND       PRES   REMARKS
PROVO AIRPORT  CLOUDY    22  15  75 N7        30.30R WCI  13
MOAB/CANYONLAN CLEAR     32  25  75 CALM      30.11S
DELTA          CLEAR     21  19  93 N6        30.26S WCI  14
PRICE          PTCLDY    24   6  46 S3        30.11S
RICHFIELD      CLEAR     25  21  86 N5        30.26R WCI  19
ROOSEVELT      CLOUDY     7   3  85 W5        30.24S WCI  -2
VERNAL         CLOUDY    10   7  87 W3        30.22S

$$

UTZ013>016-019>022-027-170700-

SOUTHERN UTAH

CITY           SKY/WX    TMP DP  RH WIND       PRES   REMARKS
BRYCE CANYON   PTCLDY    13  10  88 NW7       30.14R WCI   3
CEDAR CITY     CLEAR     19  15  84 NW6       30.19S WCI  11
MILFORD        CLEAR     23  18  81 N9        30.24R WCI  13
ST GEORGE      PTCLDY    37  21  52 E5        30.19R WCI  34
HANKSVILLE     CLEAR     30  27  86 MISG      30.16S
KANAB          CLEAR     30  27  86 CALM      30.17R
BLANDING       CLOUDY    32  28  84 CALM      30.16R

$$

REGIONAL REPORTS     COLORADO/ARIZONA

CITY           SKY/WX    TMP DP  RH WIND       PRES   REMARKS
CRAIG, CO      CLOUDY    15  12  88 S3        30.19R
GRAND JUNCTION CLOUDY    30  21  69 CALM      30.13R
RIFLE, CO      CLOUDY    24  18  77 CALM      30.15S
MONTROSE, CO   CLOUDY    30  24  78 SE7       30.15R WCI  23
CORTEZ, CO     CLOUDY    34  33  96 CALM      30.09R
COLORADO CITY    N/A     28  27  93 CALM      30.15S
PAGE, AZ       CLEAR     38  28  67 CALM      30.10R
GRAND CANYON   CLEAR     25  24  96 CALM      30.11R
KINGMAN, AZ    CLEAR     37  21  52 E10       30.10S WCI  30
FLAGSTAFF, AZ  MOCLDY    27  26  96 CALM      30.08S

$$

REGIONAL REPORTS    NEVADA/IDAHO/WYOMING

CITY           SKY/WX    TMP DP  RH WIND       PRES   REMARKS
LAS VEGAS, NV  CLEAR     47  20  34 NE6       30.12S
ELY, NY        PTCLDY     1  -2  87 S10       30.23S WCI -15
ELKO, NV       CLOUDY    19  14  81 N8        30.31R WCI   9
POCATELLO, ID  CLOUDY    -2  -6  83 NW7       30.31F WCI -15
BURLEY, ID     CLEAR      8   3  80 NE5       30.29F WCI   0
FORT BRIDGER,    N/A      6   1  79 W9        30.18S WCI  -8
EVANSTON, WY   CLOUDY    10   3  73 CALM      30.16F
ROCK SPRINGS,  FOG       -2  -6  83 SW3       30.16S VSB 1
KEMMERER, WY     N/A      1   0  92 CALM      30.15R

$$




USA.gov is the U.S. government's official web portal to all federal, state and local government web resources and services.